Time,TemperatureF,DewpointF,PressureIn,WindDirection,WindDirectionDegrees,WindSpeedMPH,WindSpeedGustMPH,Humidity,HourlyPrecipIn,Conditions,Clouds,dailyrainin,SoftwareType,DateUTC
2013-01-12 00:03:00,44.0,44.0,29.68,WSW,238,0.0,2.0,99,0.00,,,-99.99,,2013-01-12 05:03:00,
2013-01-12 00:12:00,44.0,44.0,29.68,WSW,238,0.0,2.0,99,0.00,,,-99.99,,2013-01-12 05:12:00,
2013-01-12 00:22:00,44.0,44.0,29.68,SSW,201,1.0,2.0,99,0.00,,,-99.99,,2013-01-12 05:22:00,
2013-01-12 00:32:00,44.0,44.0,29.68,WSW,242,0.0,2.0,99,0.00,,,-99.99,,2013-01-12 05:32:00,
2013-01-12 00:42:00,44.0,44.0,29.68,WSW,242,0.0,2.0,99,0.00,,,-99.99,,2013-01-12 05:42:00,
2013-01-12 00:52:00,44.0,44.0,29.68,SSE,150,1.0,2.0,99,0.00,,,-99.99,,2013-01-12 05:52:00,
2013-01-12 01:02:00,45.0,45.0,29.68,SSW,210,1.0,3.0,99,0.00,,,-99.99,,2013-01-12 06:02:00,
2013-01-12 01:12:00,45.0,45.0,29.68,SSW,210,1.0,3.0,99,0.00,,,-99.99,,2013-01-12 06:12:00,
2013-01-12 01:22:00,46.0,46.0,29.68,SW,216,1.0,3.0,99,0.00,,,-99.99,,2013-01-12 06:22:00,
2013-01-12 01:32:00,46.0,46.0,29.68,WSW,242,0.0,2.0,99,0.00,,,-99.99,,2013-01-12 06:32:00,
2013-01-12 01:42:00,46.0,46.0,29.68,WSW,242,0.0,2.0,99,0.00,,,-99.99,,2013-01-12 06:42:00,
2013-01-12 01:53:00,46.0,46.0,29.68,SW,235,0.0,1.0,99,0.00,,,-99.99,,2013-01-12 06:53:00,
2013-01-12 02:02:00,46.0,46.0,29.68,WSW,246,0.0,2.0,99,0.00,,,-99.99,,2013-01-12 07:02:00,
2013-01-12 02:12:00,46.0,46.0,29.68,WSW,253,0.0,2.0,99,0.00,,,-99.99,,2013-01-12 07:12:00,
2013-01-12 02:22:00,46.0,46.0,29.68,WSW,253,0.0,2.0,99,0.00,,,-99.99,,2013-01-12 07:22:00,
2013-01-12 02:32:00,46.0,46.0,29.68,WSW,243,0.0,1.0,99,0.00,,,-99.99,,2013-01-12 07:32:00,
2013-01-12 02:42:00,46.0,46.0,29.68,WSW,243,0.0,1.0,99,0.00,,,-99.99,,2013-01-12 07:42:00,
2013-01-12 02:53:00,46.0,46.0,29.68,SW,222,0.0,1.0,99,0.00,,,-99.99,,2013-01-12 07:53:00,
2013-01-12 03:02:00,46.0,46.0,29.68,ENE,72,1.0,2.0,99,0.00,,,-99.99,,2013-01-12 08:02:00,
2013-01-12 03:12:00,46.0,46.0,29.68,ENE,72,1.0,2.0,99,0.00,,,-99.99,,2013-01-12 08:12:00,
2013-01-12 03:22:00,43.0,43.0,29.68,East,100,1.0,2.0,99,0.00,,,-99.99,,2013-01-12 08:22:00,
2013-01-12 03:32:00,42.0,42.0,29.68,ENE,69,1.0,3.0,99,0.00,,,-99.99,,2013-01-12 08:32:00,
2013-01-12 03:42:00,42.0,42.0,29.68,ENE,69,1.0,3.0,99,0.00,,,-99.99,,2013-01-12 08:42:00,
2013-01-12 03:53:00,42.0,42.0,29.68,ENE,63,1.0,3.0,99,0.00,,,-99.99,,2013-01-12 08:53:00,
2013-01-12 04:02:00,42.0,42.0,29.68,ENE,66,1.0,4.0,99,0.00,,,-99.99,,2013-01-12 09:02:00,
2013-01-12 04:12:00,42.0,42.0,29.68,ENE,66,1.0,4.0,99,0.00,,,-99.99,,2013-01-12 09:12:00,
2013-01-12 04:22:00,42.0,42.0,29.68,ENE,66,2.0,4.0,99,0.00,,,-99.99,,2013-01-12 09:22:00,
2013-01-12 04:32:00,42.0,42.0,29.68,ENE,67,2.0,4.0,99,0.00,,,-99.99,,2013-01-12 09:32:00,
2013-01-12 04:42:00,42.0,42.0,29.68,ENE,67,2.0,4.0,99,0.00,,,-99.99,,2013-01-12 09:42:00,
2013-01-12 04:53:00,42.0,42.0,29.68,ESE,108,1.0,4.0,99,0.00,,,-99.99,,2013-01-12 09:53:00,
2013-01-12 05:02:00,42.0,42.0,29.68,ENE,70,2.0,6.0,99,0.00,,,-99.99,,2013-01-12 10:02:00,
2013-01-12 05:12:00,42.0,42.0,29.68,ENE,70,2.0,6.0,99,0.00,,,-99.99,,2013-01-12 10:12:00,
2013-01-12 05:22:00,42.0,42.0,29.68,ENE,72,2.0,4.0,99,0.00,,,-99.99,,2013-01-12 10:22:00,
2013-01-12 05:32:00,42.0,42.0,29.67,ENE,66,2.0,5.0,99,0.00,,,-99.99,,2013-01-12 10:32:00,
2013-01-12 05:42:00,42.0,42.0,29.67,ENE,66,2.0,5.0,99,0.00,,,-99.99,,2013-01-12 10:42:00,
2013-01-12 05:52:00,42.0,42.0,29.68,East,99,1.0,4.0,99,0.00,,,-99.99,,2013-01-12 10:52:00,
2013-01-12 06:02:00,42.0,42.0,29.68,ENE,60,1.0,4.0,99,0.00,,,-99.99,,2013-01-12 11:02:00,
2013-01-12 06:12:00,42.0,42.0,29.68,WNW,297,1.0,3.0,99,0.00,,,-99.99,,2013-01-12 11:12:00,
2013-01-12 06:22:00,42.0,42.0,29.68,WNW,297,1.0,3.0,99,0.00,,,-99.99,,2013-01-12 11:22:00,
2013-01-12 06:32:00,42.0,42.0,29.68,ENE,65,2.0,5.0,99,0.00,,,-99.99,,2013-01-12 11:32:00,
2013-01-12 06:42:00,42.0,42.0,29.68,ENE,65,2.0,5.0,99,0.00,,,-99.99,,2013-01-12 11:42:00,
2013-01-12 06:53:00,42.0,42.0,29.68,ENE,69,2.0,4.0,99,0.00,,,-99.99,,2013-01-12 11:53:00,
2013-01-12 07:03:00,41.0,41.0,29.68,NE,46,2.0,6.0,99,0.00,,,-99.99,,2013-01-12 12:03:00,
2013-01-12 07:12:00,41.0,41.0,29.68,NE,46,2.0,6.0,99,0.00,,,-99.99,,2013-01-12 12:12:00,
2013-01-12 07:22:00,41.0,41.0,29.70,ENE,63,2.0,5.0,99,0.00,,,-99.99,,2013-01-12 12:22:00,
2013-01-12 07:32:00,41.0,41.0,29.68,SW,216,1.0,5.0,99,0.00,,,-99.99,,2013-01-12 12:32:00,
2013-01-12 07:42:00,41.0,41.0,29.68,SW,216,1.0,5.0,99,0.00,,,-99.99,,2013-01-12 12:42:00,
2013-01-12 07:53:00,41.0,41.0,29.71,WSW,253,1.0,4.0,99,0.00,,,-99.99,,2013-01-12 12:53:00,
2013-01-12 08:02:00,41.0,41.0,29.71,East,101,1.0,5.0,99,0.00,,,-99.99,,2013-01-12 13:02:00,
2013-01-12 08:12:00,41.0,41.0,29.71,East,101,1.0,5.0,99,0.00,,,-99.99,,2013-01-12 13:12:00,
2013-01-12 08:23:00,41.0,41.0,29.71,East,94,1.0,4.0,99,0.00,,,-99.99,,2013-01-12 13:23:00,
2013-01-12 08:33:00,42.0,42.0,29.71,ENE,66,2.0,6.0,99,0.00,,,-99.99,,2013-01-12 13:33:00,
2013-01-12 08:42:00,42.0,42.0,29.71,ENE,66,2.0,6.0,99,0.00,,,-99.99,,2013-01-12 13:42:00,
2013-01-12 08:53:00,42.0,42.0,29.71,ENE,60,1.0,5.0,99,0.00,,,-99.99,,2013-01-12 13:53:00,
2013-01-12 09:02:00,43.0,43.0,29.71,ENE,72,2.0,6.0,99,0.00,,,-99.99,,2013-01-12 14:02:00,
2013-01-12 09:12:00,43.0,43.0,29.71,ENE,72,2.0,6.0,99,0.00,,,-99.99,,2013-01-12 14:12:00,
2013-01-12 09:22:00,43.0,43.0,29.71,ENE,64,2.0,4.0,99,0.00,,,-99.99,,2013-01-12 14:22:00,
2013-01-12 09:33:00,43.0,43.0,29.71,ENE,67,1.0,4.0,99,0.00,,,-99.99,,2013-01-12 14:33:00,
2013-01-12 09:43:00,43.0,43.0,29.71,ENE,67,1.0,4.0,99,0.00,,,-99.99,,2013-01-12 14:43:00,
2013-01-12 09:53:00,43.0,43.0,29.71,NE,54,2.0,5.0,99,0.00,,,-99.99,,2013-01-12 14:53:00,
2013-01-12 10:03:00,43.0,43.0,29.71,ENE,69,2.0,6.0,99,0.00,,,-99.99,,2013-01-12 15:03:00,
2013-01-12 10:12:00,43.0,43.0,29.71,ESE,109,1.0,5.0,99,0.00,,,-99.99,,2013-01-12 15:12:00,
2013-01-12 10:22:00,43.0,43.0,29.71,ESE,109,1.0,5.0,99,0.00,,,-99.99,,2013-01-12 15:22:00,
2013-01-12 10:33:00,44.0,43.0,29.71,West,269,1.0,3.0,98,0.00,,,-99.99,,2013-01-12 15:33:00,
2013-01-12 10:43:00,44.0,43.0,29.71,West,269,1.0,3.0,98,0.00,,,-99.99,,2013-01-12 15:43:00,
2013-01-12 10:53:00,44.0,43.0,29.71,ENE,68,1.0,4.0,98,0.00,,,-99.99,,2013-01-12 15:53:00,
2013-01-12 11:03:00,45.0,44.0,29.71,ENE,60,1.0,4.0,96,0.00,,,-99.99,,2013-01-12 16:03:00,
2013-01-12 11:12:00,45.0,44.0,29.71,ENE,60,1.0,4.0,96,0.00,,,-99.99,,2013-01-12 16:12:00,
2013-01-12 11:23:00,46.0,44.0,29.71,ENE,77,1.0,3.0,94,0.00,,,-99.99,,2013-01-12 16:23:00,
2013-01-12 11:33:00,46.0,44.0,29.71,ENE,69,1.0,3.0,94,0.00,,,-99.99,,2013-01-12 16:33:00,
2013-01-12 11:42:00,46.0,44.0,29.71,ENE,70,1.0,4.0,94,0.00,,,-99.99,,2013-01-12 16:42:00,
2013-01-12 11:53:00,46.0,44.0,29.71,ENE,70,1.0,4.0,94,0.00,,,-99.99,,2013-01-12 16:53:00,
2013-01-12 12:02:00,46.0,44.0,29.71,WSW,250,0.0,3.0,93,0.00,,,-99.99,,2013-01-12 17:02:00,
2013-01-12 12:12:00,46.0,44.0,29.71,East,91,1.0,3.0,92,0.00,,,-99.99,,2013-01-12 17:12:00,
2013-01-12 12:23:00,46.0,44.0,29.71,East,91,1.0,3.0,92,0.00,,,-99.99,,2013-01-12 17:23:00,
2013-01-12 12:33:00,47.0,44.0,29.71,East,91,0.0,3.0,90,0.00,,,-99.99,,2013-01-12 17:33:00,
2013-01-12 12:43:00,47.0,44.0,29.71,East,91,0.0,3.0,90,0.00,,,-99.99,,2013-01-12 17:43:00,
2013-01-12 12:53:00,47.0,44.0,29.71,ENE,74,1.0,2.0,89,0.00,,,-99.99,,2013-01-12 17:53:00,
2013-01-12 13:03:00,47.0,44.0,29.71,ESE,103,1.0,3.0,89,0.00,,,-99.99,,2013-01-12 18:03:00,
2013-01-12 13:12:00,47.0,44.0,29.71,ESE,103,1.0,3.0,89,0.00,,,-99.99,,2013-01-12 18:12:00,
2013-01-12 13:23:00,46.0,44.0,29.71,West,275,1.0,3.0,92,0.00,,,-99.99,,2013-01-12 18:23:00,
2013-01-12 13:33:00,46.0,43.0,29.71,ESE,103,1.0,2.0,90,0.00,,,-99.99,,2013-01-12 18:33:00,
2013-01-12 13:42:00,46.0,43.0,29.71,ESE,103,1.0,2.0,90,0.00,,,-99.99,,2013-01-12 18:42:00,
2013-01-12 13:53:00,46.0,43.0,29.71,WNW,284,1.0,3.0,90,0.00,,,-99.99,,2013-01-12 18:53:00,
2013-01-12 14:03:00,46.0,44.0,29.71,West,281,1.0,3.0,92,0.00,,,-99.99,,2013-01-12 19:03:00,
2013-01-12 14:12:00,46.0,44.0,29.71,West,281,1.0,3.0,92,0.00,,,-99.99,,2013-01-12 19:12:00,
2013-01-12 14:23:00,46.0,44.0,29.74,ENE,69,1.0,3.0,93,0.00,,,-99.99,,2013-01-12 19:23:00,
2013-01-12 14:33:00,46.0,44.0,29.71,ENE,75,1.0,3.0,91,0.00,,,-99.99,,2013-01-12 19:33:00,
2013-01-12 14:43:00,46.0,44.0,29.71,ENE,75,1.0,3.0,91,0.00,,,-99.99,,2013-01-12 19:43:00,
2013-01-12 14:53:00,47.0,44.0,29.71,East,91,1.0,3.0,89,0.00,,,-99.99,,2013-01-12 19:53:00,
2013-01-12 15:03:00,46.0,44.0,29.71,ENE,64,1.0,3.0,91,0.00,,,-99.99,,2013-01-12 20:03:00,
2013-01-12 15:12:00,46.0,44.0,29.71,East,100,1.0,2.0,93,0.00,,,-99.99,,2013-01-12 20:12:00,
2013-01-12 15:22:00,46.0,44.0,29.71,East,100,1.0,2.0,93,0.00,,,-99.99,,2013-01-12 20:22:00,
2013-01-12 15:33:00,44.0,43.0,29.71,NE,37,1.0,2.0,95,0.00,,,-99.99,,2013-01-12 20:33:00,
2013-01-12 15:42:00,44.0,43.0,29.71,NE,37,1.0,2.0,95,0.00,,,-99.99,,2013-01-12 20:42:00,
2013-01-12 15:53:00,44.0,43.0,29.71,ENE,73,1.0,2.0,97,0.00,,,-99.99,,2013-01-12 20:53:00,
2013-01-12 16:03:00,44.0,43.0,29.71,ENE,67,1.0,2.0,97,0.00,,,-99.99,,2013-01-12 21:03:00,
2013-01-12 16:12:00,44.0,43.0,29.71,ENE,62,1.0,4.0,98,0.00,,,-99.99,,2013-01-12 21:12:00,
2013-01-12 16:22:00,44.0,43.0,29.71,ENE,62,1.0,4.0,98,0.00,,,-99.99,,2013-01-12 21:22:00,
2013-01-12 16:33:00,43.0,43.0,29.71,ENE,69,1.0,2.0,99,0.00,,,-99.99,,2013-01-12 21:33:00,
2013-01-12 16:43:00,43.0,43.0,29.71,ENE,69,1.0,2.0,99,0.00,,,-99.99,,2013-01-12 21:43:00,
2013-01-12 16:53:00,43.0,43.0,29.71,ENE,65,1.0,2.0,99,0.00,,,-99.99,,2013-01-12 21:53:00,
2013-01-12 17:03:00,42.0,42.0,29.73,East,100,1.0,2.0,99,0.00,,,-99.99,,2013-01-12 22:03:00,
2013-01-12 17:12:00,42.0,42.0,29.73,East,100,1.0,2.0,99,0.00,,,-99.99,,2013-01-12 22:12:00,
2013-01-12 17:23:00,42.0,42.0,29.73,WSW,242,0.0,2.0,99,0.00,,,-99.99,,2013-01-12 22:23:00,
2013-01-12 17:33:00,42.0,42.0,29.74,East,94,0.0,2.0,99,0.00,,,-99.99,,2013-01-12 22:33:00,
2013-01-12 17:43:00,41.0,41.0,29.74,East,99,0.0,2.0,99,0.00,,,-99.99,,2013-01-12 22:43:00,
2013-01-12 17:53:00,41.0,41.0,29.74,East,99,0.0,2.0,99,0.00,,,-99.99,,2013-01-12 22:53:00,
2013-01-12 18:03:00,41.0,41.0,29.74,ESE,104,1.0,2.0,99,0.00,,,-99.99,,2013-01-12 23:03:00,
2013-01-12 18:12:00,41.0,41.0,29.74,ESE,104,0.0,2.0,99,0.00,,,-99.99,,2013-01-12 23:12:00,
2013-01-12 18:22:00,41.0,41.0,29.74,ESE,104,0.0,2.0,99,0.00,,,-99.99,,2013-01-12 23:22:00,
2013-01-12 18:33:00,41.0,41.0,29.74,SSW,208,0.0,2.0,99,0.00,,,-99.99,,2013-01-12 23:33:00,
2013-01-12 18:43:00,41.0,41.0,29.74,SSW,199,0.0,1.0,99,0.00,,,-99.99,,2013-01-12 23:43:00,
2013-01-12 18:53:00,41.0,41.0,29.74,SSW,199,0.0,1.0,99,0.00,,,-99.99,,2013-01-12 23:53:00,
2013-01-12 19:03:00,41.0,41.0,29.74,SW,215,0.0,3.0,99,0.00,,,-99.99,,2013-01-13 00:03:00,
2013-01-12 19:12:00,41.0,41.0,29.74,SW,215,0.0,3.0,99,0.00,,,-99.99,,2013-01-13 00:12:00,
2013-01-12 19:23:00,40.0,40.0,29.73,SSW,207,0.0,1.0,99,0.00,,,-99.99,,2013-01-13 00:23:00,
2013-01-12 19:33:00,40.0,40.0,29.71,SSW,204,0.0,3.0,99,0.00,,,-99.99,,2013-01-13 00:33:00,
2013-01-12 19:43:00,40.0,40.0,29.71,SSW,204,0.0,3.0,99,0.00,,,-99.99,,2013-01-13 00:43:00,
2013-01-12 19:53:00,40.0,40.0,29.73,SSW,211,0.0,1.0,99,0.00,,,-99.99,,2013-01-13 00:53:00,
2013-01-12 20:03:00,40.0,40.0,29.74,SSW,206,0.0,0.0,99,0.00,,,-99.99,,2013-01-13 01:03:00,
2013-01-12 20:12:00,40.0,40.0,29.74,SSW,206,0.0,0.0,99,0.00,,,-99.99,,2013-01-13 01:12:00,
2013-01-12 20:23:00,40.0,40.0,29.74,West,265,0.0,1.0,99,0.00,,,-99.99,,2013-01-13 01:23:00,
2013-01-12 20:33:00,40.0,40.0,29.74,SW,230,0.0,1.0,99,0.00,,,-99.99,,2013-01-13 01:33:00,
2013-01-12 20:43:00,40.0,40.0,29.74,SW,230,0.0,1.0,99,0.00,,,-99.99,,2013-01-13 01:43:00,
2013-01-12 20:53:00,40.0,40.0,29.74,SW,231,0.0,1.0,99,0.00,,,-99.99,,2013-01-13 01:53:00,
2013-01-12 21:02:00,40.0,40.0,29.74,West,277,1.0,2.0,99,0.00,,,-99.99,,2013-01-13 02:02:00,
2013-01-12 21:12:00,40.0,40.0,29.74,West,277,1.0,2.0,99,0.00,,,-99.99,,2013-01-13 02:12:00,
2013-01-12 21:22:00,40.0,40.0,29.74,West,260,0.0,1.0,99,0.00,,,-99.99,,2013-01-13 02:22:00,
2013-01-12 21:33:00,40.0,40.0,29.71,West,260,0.0,1.0,99,0.00,,,-99.99,,2013-01-13 02:33:00,
2013-01-12 21:43:00,40.0,40.0,29.71,West,260,0.0,1.0,99,0.00,,,-99.99,,2013-01-13 02:43:00,
2013-01-12 21:53:00,40.0,40.0,29.71,West,272,0.0,0.0,99,0.00,,,-99.99,,2013-01-13 02:53:00,
2013-01-12 22:02:00,40.0,40.0,29.71,SSW,199,0.0,1.0,99,0.00,,,-99.99,,2013-01-13 03:02:00,
2013-01-12 22:12:00,40.0,40.0,29.71,SSW,199,0.0,1.0,99,0.00,,,-99.99,,2013-01-13 03:12:00,
2013-01-12 22:22:00,40.0,40.0,29.71,SW,219,0.0,1.0,99,0.00,,,-99.99,,2013-01-13 03:22:00,
2013-01-12 22:33:00,40.0,40.0,29.71,SW,215,0.0,1.0,99,0.00,,,-99.99,,2013-01-13 03:33:00,
2013-01-12 22:43:00,40.0,40.0,29.71,SW,215,0.0,1.0,99,0.00,,,-99.99,,2013-01-13 03:43:00,
2013-01-12 22:53:00,40.0,40.0,29.71,WSW,239,0.0,0.0,99,0.00,,,-99.99,,2013-01-13 03:53:00,
2013-01-12 23:02:00,40.0,40.0,29.71,SW,226,0.0,0.0,99,0.00,,,-99.99,,2013-01-13 04:02:00,
2013-01-12 23:12:00,40.0,40.0,29.71,SW,226,0.0,0.0,99,0.00,,,-99.99,,2013-01-13 04:12:00,
2013-01-12 23:22:00,40.0,40.0,29.71,WSW,251,0.0,1.0,99,0.00,,,-99.99,,2013-01-13 04:22:00,
2013-01-12 23:33:00,40.0,40.0,29.71,WSW,240,0.0,1.0,99,0.00,,,-99.99,,2013-01-13 04:33:00,
2013-01-12 23:42:00,40.0,40.0,29.71,WSW,240,0.0,1.0,99,0.00,,,-99.99,,2013-01-13 04:42:00,
2013-01-12 23:53:00,40.0,40.0,29.73,West,264,0.0,1.0,99,0.00,,,-99.99,,2013-01-13 04:53:00,